Flag for Switzerland Weather past 2 weeks in Pully, Vaud, Switzerland

Now
51 °F

Cool.


Feels Like: 45 °F
Forecast: 39 / 62 °F
Wind: 21 mph from North

Location: Aigle

Current Time: Apr 28, 2015 at 2:46:24 AM

Latest Report: Apr 28, 2015 at 1:00 AM


Visibility: N/A

Pressure: 29.69 "Hg

Humidity: 83%

Dew point: 46 °F

Location of PullyLocation

Historic Weather in Pully — Graph

°F

Pully temperature yesterday

Maximum temperature yesterday: 67 °F (at 4:00 PM)
Minimum temperature yesterday: 51 °F (at 3:00 AM)
Average temperature yesterday: 58 °F

Past Weeks' High & Low Weather Summary

 TemperatureHumidityPressure
High72 °F (Apr 15, 6:00 PM)98% (Apr 18, 6:00 AM)30.47 "Hg (Apr 18, 6:00 AM)
Low38 °F (Apr 20, 7:00 AM)26% (Apr 15, 6:00 PM)29.44 "Hg (Apr 27, 2:00 PM)
Average55 °F70%30.05 "Hg
* Reported Apr 13 1:00 AM — Apr 28 1:00 AM, Pully, Weather by CustomWeather, © 2015

Note: Actual official high and low records may vary slightly from our data, if they occured in-between our weather recording intervals... More about our weather records

Advertising

Pully weather history for previous 24 hours

 ConditionsComfort  
Time TempWeatherWind HumidityBarometerVisibility
1:00 AM
Tue, Apr 28
51 °FCool.21 mph83%29.69 "HgN/A
12:00 AM54 °FCool.12 mph85%29.64 "HgN/A
10:00 PM
Mon, Apr 27
57 °FCool.9 mph90%29.59 "HgN/A
9:00 PM58 °FCool.8 mph82%29.56 "HgN/A
8:00 PM58 °FOvercast.14 mph81%29.54 "Hg9 mi
7:00 PM58 °FCool.18 mph79%29.50 "HgN/A
6:00 PM61 °FCool.20 mph71%29.47 "HgN/A
5:00 PM65 °FOvercast.18 mph68%29.44 "Hg11 mi
4:00 PM67 °FMild.13 mph67%29.44 "HgN/A
3:00 PM66 °FMild.17 mph67%29.44 "HgN/A
2:00 PM65 °FPartly sunny.15 mph69%29.44 "Hg19 mi
1:00 PM63 °FMild.13 mph73%29.47 "HgN/A
12:00 PM63 °FMild.12 mph74%29.50 "HgN/A
11:00 AM63 °FPassing clouds.9 mph72%29.50 "Hg25 mi
10:00 AM60 °FCool.5 mph81%29.54 "HgN/A
9:00 AM57 °FCool.3 mph87%29.57 "HgN/A
8:00 AM54 °FOvercast.3 mph93%29.60 "Hg14 mi
7:00 AM52 °FCool.1 mph94%29.60 "HgN/A
6:00 AM51 °FCool.2 mph95%29.60 "HgN/A
5:00 AM51 °FFog.1 mph97%29.61 "Hg4 mi
4:00 AM51 °FCool.2 mph96%29.61 "HgN/A
3:00 AM51 °FCool.1 mph96%29.65 "HgN/A
2:00 AM52 °FCool.1 mph97%29.66 "HgN/A
Weather by CustomWeather, © 2015

See weather overviewHow to use our weather pages